Weather History for McGuire AFB, NJ

Change the Weather History Date:

Monday, February 18, 2013

  Actual Average Record
Temperature  
Mean Temperature 27 °F -  
Max Temperature 36 °F 43 °F 66 °F (2008)
Min Temperature 18 °F 25 °F 15 °F (2006)
Degree Days  
Heating Degree Days 38    
Moisture  
Dew Point 5 °F    
Average Humidity 41    
Maximum Humidity 52    
Minimum Humidity 29    
Precipitation  
Precipitation 0.00 in - - ()
Sea Level Pressure  
Sea Level Pressure 30.21 in    
Wind  
Wind Speed 16 mph (West)    
Max Wind Speed 25 mph    
Max Gust Speed 31 mph    
Visibility 10 miles    
Events      
Averages and records for this station are not official NWS values.
T = Trace of Precipitation, MM = Missing Value Source: NWS Daily Summary

Daily Weather History Graph

Daily Weather History Graph

Search for Another Location

Airport:

Trip Planner

Search our weather history database for the weather conditions in past years. The results will help you decide how hot, cold, wet, or windy it might be!

Date:

Astronomy

Feb. 18, 2013 Rise Set
Actual Time 6:47 AM EST 5:38 PM EST
Civil Twilight 6:19 AM EST 6:05 PM EST
Nautical Twilight 5:47 AM EST 6:37 PM EST
Astronomical Twilight 5:16 AM EST 7:08 PM EST
Moon 11:22 AM EST 1:24 AM EST
Length of Visible Light 11h 46m
Length of Day
10h 51m
First Quarter, 58% of the Moon is Illuminated
Feb 18
First Quarter
Feb 25
Full
Mar 4
Last Quarter
Mar 11
New
Mar 19
First Quarter

Hourly Weather History & Observations

Time (EST) Temp. Windchill Dew Point Humidity Pressure Visibility Wind Dir Wind Speed Gust Speed Precip Events Conditions
12:55 AM 20.1 °F 2.7 °F -0.0 °F 41% 30.07 in 10.0 mi WNW 25.3 mph 31.1 mph N/A   Clear
1:55 AM 19.8 °F 5.0 °F 0.7 °F 43% 30.09 in 10.0 mi WNW 17.3 mph - N/A   Clear
2:55 AM 19.4 °F 4.1 °F 0.9 °F 45% 30.11 in 10.0 mi WNW 18.4 mph 24.2 mph N/A   Clear
3:55 AM 19.0 °F 4.0 °F 0.9 °F 45% 30.13 in 10.0 mi WNW 17.3 mph 24.2 mph N/A   Clear
4:55 AM 19.0 °F 5.6 °F 1.4 °F 46% 30.17 in 10.0 mi WNW 13.8 mph 25.3 mph N/A   Clear
5:55 AM 18.9 °F 3.3 °F 1.6 °F 47% 30.18 in 10.0 mi WNW 18.4 mph 28.8 mph N/A   Clear
6:55 AM 18.5 °F 4.3 °F 2.3 °F 49% 30.22 in 10.0 mi WNW 15.0 mph 20.7 mph N/A   Clear
7:55 AM 21.0 °F 8.1 °F 2.5 °F 45% 30.25 in 10.0 mi West 13.8 mph 21.9 mph N/A   Clear
8:55 AM 23.5 °F 9.4 °F 2.1 °F 40% 30.26 in 10.0 mi WNW 18.4 mph 21.9 mph N/A   Clear
9:55 AM 26.2 °F 13.8 °F 2.7 °F 36% 30.28 in 10.0 mi WNW 16.1 mph 21.9 mph N/A   Clear
10:55 AM 28.9 °F 17.3 °F 3.9 °F 35% 30.29 in 10.0 mi WNW 16.1 mph - N/A   Clear
11:55 AM 30.9 °F 20.7 °F 4.8 °F 33% 30.28 in 10.0 mi WNW 13.8 mph 21.9 mph N/A   Clear
12:55 PM 32.9 °F 24.7 °F 5.5 °F 32% 30.24 in 10.0 mi WNW 10.4 mph 18.4 mph N/A   Clear
1:55 PM 35.2 °F 27.6 °F 6.3 °F 30% 30.22 in 10.0 mi NW 10.4 mph - N/A   Clear
2:55 PM 36.5 °F 27.8 °F 7.3 °F 30% 30.22 in 10.0 mi West 13.8 mph - N/A   Clear
3:55 PM 36.3 °F 27.5 °F 6.6 °F 29% 30.22 in 10.0 mi West 13.8 mph - N/A   Clear
4:55 PM 35.8 °F 29.4 °F 8.1 °F 32% 30.21 in 10.0 mi WNW 8.1 mph - N/A   Clear
5:55 PM 31.8 °F 27.3 °F 8.8 °F 38% 30.22 in 10.0 mi West 4.6 mph - N/A   Clear
6:55 PM 28.9 °F 22.8 °F 10.2 °F 46% 30.23 in 10.0 mi SW 5.8 mph - N/A   Clear
7:55 PM 29.8 °F 22.2 °F 10.2 °F 44% 30.24 in 10.0 mi WSW 8.1 mph - N/A   Clear
8:55 PM 29.3 °F 22.3 °F 10.8 °F 46% 30.22 in 10.0 mi SW 6.9 mph - N/A   Clear
9:55 PM 28.8 °F 23.7 °F 10.4 °F 46% 30.22 in 10.0 mi SW 4.6 mph - N/A   Clear
10:55 PM 27.1 °F 23.2 °F 11.5 °F 52% 30.22 in 10.0 mi South 3.5 mph - N/A   Clear
11:55 PM 27.0 °F 23.0 °F 11.5 °F 52% 30.21 in 10.0 mi South 3.5 mph - N/A   Clear